Tracking 30986 objects as of 9-Jul-2025
HD Live streaming from Space Station
objects crossing your sky now

CZ-6A DEB

Track CZ-6A DEB now!
10-day predictions


NORAD ID: 55533
Int'l Code: 2022-151YF
Perigee: 837.1 km
Apogee: 896.2 km
Inclination: 98.8 °
Period: 102.1 minutes
Semi major axis: 7237 km
RCS: Unknown
Launch date: November 11, 2022
Source: People's Republic of China (PRC)
Launch site: Taiyaun Space Center, China (TSC)

Note: This is SATELLITE DEBRIS
Your satellite tracking list
Your tracking list is empty




NASA's NSSDC Master Catalog

Two Line Element Set (TLE):
1 55533U 22151YF  25189.91659843  .00000045  00000-0  49657-4 0  9996
2 55533  98.8258 191.4368 0040803 221.7369 138.0686 14.09965406131326
Source of the keplerian elements: AFSPC